Regional Weather Roundup
Issued by NWS State College, PA

Home | Current Version | Previous Version | Text Only | Print | Product List | Glossary On
Versions: 1 2 3 4 5 6 7 8 9 10 11 12 13 14 15 16 17 18 19 20 21 22 23 24 25 26 27 28 29 30 31 32 33 34 35 36 37 38 39 40 41 42 43 44 45 46 47 48 49 50
000
ASUS41 KCTP 272010
RWRCTP

REGIONAL WEATHER ROUNDUP
NATIONAL WEATHER SERVICE STATE COLLEGE PA
400 PM EDT WED AUG 27 2014

Note: "fair" indicates few or no clouds below 12,000 feet with no
significant weather and/or obstructions to visibility.

* = STATION THAT DOES NOT REPORT PRECIPITATION /E.G. RAIN...SNOW...ETC/
    THUNDER OR FOG.

PAZ002>004-007>009-013>016-020>023-029>032-272100-
WESTERN PENNSYLVANIA

CITY           SKY/WX    TMP DP  RH WIND       PRES   REMARKS
ERIE           CLOUDY    73  57  56 NW8       30.07S
MEADVILLE      CLOUDY    75  62  64 NW7       30.07S
FRANKLIN*      PTSUNNY   79  66  65 W9        30.07R
NEW CASTLE     MOCLDY    82  69  64 NW6       30.04S
BEAVER COUNTY  PTSUNNY   81  68  65 NW9       30.03F
BUTLER*        MOSUNNY   82  72  69 W5        30.04F
PITTSBURGH INT PTSUNNY   84  69  60 NW9       30.02F
PITTSBURGH     PTSUNNY   85  68  56 W7        30.01F
INDIANA*       MOSUNNY   84  70  61 W8G16     30.04F
LATROBE        MOSUNNY   82  73  74 W14       30.03F
WASHINGTON CO* CLOUDY    81  72  74 W6        30.03F
$$

PAZ004>006-010>012-017>019-024>028-033>037-041-042-045-046-049>053-272100-
CENTRAL PENNSYLVANIA

CITY           SKY/WX    TMP DP  RH WIND       PRES   REMARKS
BRADFORD       MOSUNNY   81  64  56 NW10      30.04F
DUBOIS         MOSUNNY   81  65  58 NW10      30.02F
CLEARFIELD     MOSUNNY   83  65  54 W9        30.00F
JOHNSTOWN      MOSUNNY   80  65  59 W12       30.06F
ALTOONA        SUNNY     86  68  54 W14       30.01F
STATE COLLEGE  MOSUNNY   84  70  61 W8        29.98F
WILLIAMSPORT   SUNNY     89  66  46 W5        29.91F
SELINSGROVE    MOSUNNY   88  73  61 CALM      29.93F HX  95
FT INDIANTOWN  SUNNY     88  71  56 W10       29.95F
CAPITAL CITY   MOSUNNY   88  67  49 W8        29.94F
HARRISBURG     MOSUNNY   89  71  55 SW5       29.93F HX  95
YORK           SUNNY     86  69  56 VRB3      29.95F
$$

PAZ038>040-043-044-047-048-054-055-060>062-067>071-272100-
EASTERN PENNSYLVANIA

CITY           SKY/WX    TMP DP  RH WIND       PRES   REMARKS
SCRANTON       MOSUNNY   86  66  51 CALM      29.94F
MOUNT POCONO   LGT RAIN  83  64  52 W10       29.99F
ALLENTOWN      SUNNY     88  65  46 SW7       29.92F
QUAKERTOWN*    PTCLDY    88  68  51 MISG      29.94F
READING        SUNNY     88  67  49 W7        29.92F
LANCASTER      SUNNY     87  65  47 W7        29.94F
COATESVILLE    PTCLDY    84  66  54 SW5       29.96F
POTTSTOWN      MOSUNNY   86  66  51 S8        29.94F
BLUE BELL      SUNNY     90  68  48 W6        29.92F
DOYLESTOWN     SUNNY     87  66  49 VRB6      29.91F
WILLOW GROVE   NOT AVBL
NORTH PHILA    SUNNY     91  61  36 SW5       29.93F
PHILADELPHIA   SUNNY     88  64  44 SW9       29.92F
$$



USA.gov is the U.S. government's official web portal to all federal, state and local government web resources and services.